EW0132 Weather Reports


time (UTC)temp
F
wind
direction
speed
knots
gust
knots
rain 1hr
in
rain 24hr
in
rain mn
in
humidity
%
barometer
mb
20260507184547 55 312 8.7 15.6 0.00 0.00 0.00 50 1011.5
20260507183051 54 268 8.7 14.8 0.00 0.00 0.00 53 1011.6
20260507181548 54 275 12.2 17.4 0.00 0.00 0.00 49 1011.5
20260507180050 54 300 8.7 18.2 0.00 0.00 0.00 47 1011.6
20260507174549 53 261 7.8 14.8 0.00 0.00 0.00 53 1011.8
20260507173042 53 288 6.1 13.9 0.00 0.00 0.00 51 1012.0
20260507171543 52 352 7.0 13.9 0.00 0.00 0.00 52 1012.1
20260507170049 53 348 7.8 13.9 0.00 0.00 0.00 50 1012.4
20260507164543 53 5 6.1 10.4 0.00 0.00 0.00 53 1012.5
20260507163045 52 248 7.0 13.9 0.00 0.00 0.00 52 1012.8
20260507161543 53 279 4.3 9.6 0.00 0.00 0.00 55 1012.9
20260507160044 51 323 4.3 15.6 0.00 0.00 0.00 50 1012.9
20260507154547 52 319 6.1 13.9 0.00 0.00 0.00 51 1013.0
20260507153054 50 72 2.6 13.0 0.00 0.00 0.00 51 1013.1
20260507151543 50 352 2.6 13.0 0.00 0.00 0.00 54 1013.2
20260507150045 50 276 0.0 7.0 0.00 0.00 0.00 58 1013.3
20260507144548 50 281 6.1 11.3 0.00 0.00 0.00 57 1013.7
20260507143047 50 326 5.2 11.3 0.00 0.00 0.00 60 1013.8
20260507141552 49 300 3.5 8.7 0.00 0.00 0.00 58 1014.0
20260507140106 49 267 6.1 12.2 0.00 0.00 0.00 57 1014.3
20260507134550 48 317 5.2 10.4 0.00 0.00 0.00 54 1014.4
20260507133049 48 304 7.0 13.0 0.00 0.00 0.00 54 1014.4
20260507131600 47 292 7.0 11.3 0.00 0.00 0.00 54 1014.3
20260507130051 47 309 5.2 10.4 0.00 0.00 0.00 59 1014.3
20260507124603 46 288 6.1 9.6 0.00 0.01 0.00 58 1014.3
20260507123053 45 269 4.3 9.6 0.00 0.01 0.00 64 1014.4
20260507121550 43 311 0.9 3.5 0.00 0.01 0.00 77 1014.4
20260507120051 41 279 0.0 1.7 0.00 0.01 0.00 85 1014.4
20260507114550 39 0 0.0 1.7 0.00 0.04 0.00 87 1014.5
20260507113047 38 239 1.7 3.5 0.00 0.04 0.00 87 1014.3
20260507111553 37 229 0.9 3.5 0.00 0.04 0.00 87 1014.0
20260507110049 37 275 0.9 3.5 0.00 0.04 0.00 87 1013.8
20260507104549 36 0 0.0 0.0 0.00 0.12 0.00 87 1013.6
20260507103052 36 0 0.0 0.0 0.00 0.12 0.00 86 1013.7
20260507101548 36 275 0.9 3.5 0.00 0.12 0.00 85 1013.4
20260507100049 37 246 0.0 2.6 0.00 0.12 0.00 83 1013.5
20260507094544 38 0 0.0 0.0 0.00 0.16 0.00 82 1013.5
20260507093045 39 0 0.0 0.0 0.00 0.16 0.00 81 1013.5
20260507091548 40 0 0.0 0.0 0.00 0.16 0.00 79 1013.6
20260507090047 40 0 0.0 0.0 0.00 0.16 0.00 78 1013.5
20260507084552 41 0 0.0 0.0 0.00 0.16 0.00 78 1013.4
20260507083049 42 0 0.0 0.0 0.00 0.16 0.00 75 1013.5
20260507081542 43 0 0.0 0.0 0.00 0.16 0.00 74 1013.6
20260507080134 43 0 0.0 0.0 0.00 0.16 0.00 72 1013.5
20260507074552 43 0 0.0 0.0 0.00 0.16 0.00 70 1013.5
20260507073050 43 0 0.0 2.6 0.00 0.16 0.00 69 1013.5
20260507071600 43 0 0.0 5.2 0.00 0.16 0.00 69 1013.4
20260507070046 44 12 2.6 9.6 0.00 0.16 0.00 70 1013.4
20260507064546 44 334 4.3 9.6 0.00 0.16 0.00 71 1013.2
20260507063046 44 324 6.1 11.3 0.00 0.16 0.00 71 1013.3
20260507061546 44 313 4.3 9.6 0.00 0.16 0.00 75 1013.7
20260507060044 44 323 2.6 8.7 0.00 0.16 0.00 76 1013.8
20260507054551 44 292 3.5 8.7 0.00 0.16 0.00 75 1013.9
20260507053047 45 348 3.5 9.6 0.00 0.16 0.00 75 1014.1
20260507051544 45 338 1.7 7.0 0.00 0.16 0.00 79 1014.0
20260507050047 45 352 0.9 7.0 0.00 0.16 0.00 79 1014.1
20260507044546 45 17 2.6 7.0 0.00 0.16 0.00 79 1014.1
20260507043044 45 360 0.9 3.5 0.00 0.16 0.00 79 1014.0
20260507041547 46 330 1.7 7.0 0.00 0.16 0.00 79 1014.1
20260507040056 46 0 0.9 3.5 0.00 0.16 0.00 80 1014.2
20260507034544 46 11 0.0 3.5 0.00 0.16 0.16 82 1014.1
20260507033043 46 5 2.6 5.2 0.00 0.16 0.16 82 1014.2
20260507031545 47 311 1.7 4.3 0.00 0.16 0.16 85 1014.0
20260507030043 47 0 0.0 2.6 0.00 0.16 0.16 87 1013.8
20260507024550 47 9 1.7 4.3 0.00 0.16 0.16 87 1013.7
20260507023040 47 348 1.7 3.5 0.00 0.16 0.16 87 1013.7
20260507021547 47 328 1.7 3.5 0.00 0.16 0.16 87 1013.7
20260507020100 47 309 1.7 4.3 0.00 0.16 0.16 87 1013.2
20260507014559 48 336 1.7 4.3 0.00 0.16 0.16 87 1013.1
20260507013049 48 0 0.0 5.2 0.00 0.16 0.16 87 1013.3
20260507011553 47 323 1.7 5.2 0.00 0.16 0.16 87 1012.9
20260507010049 48 336 3.5 7.0 0.00 0.16 0.16 88 1013.3
20260507004542 48 352 2.6 4.3 0.00 0.16 0.16 88 1013.2
20260507003049 48 291 1.7 6.1 0.00 0.16 0.16 88 1013.7
20260507001605 48 288 5.2 7.8 0.00 0.16 0.16 87 1013.7
20260507000058 48 284 3.5 7.8 0.00 0.16 0.16 87 1013.3
20260506234552 48 271 2.6 6.1 0.00 0.16 0.16 88 1013.3
20260506233048 48 0 0.9 9.6 0.00 0.16 0.16 87 1013.1
20260506231549 48 314 2.6 7.8 0.00 0.16 0.16 87 1013.0
20260506230052 48 316 6.1 11.3 0.00 0.16 0.16 87 1012.5
20260506224550 48 311 7.8 12.2 0.00 0.16 0.16 87 1012.4
20260506223049 48 338 4.3 10.4 0.00 0.16 0.16 90 1012.5
20260506221551 48 360 5.2 12.2 0.00 0.16 0.16 90 1012.4
20260506220058 49 300 5.2 9.6 0.00 0.16 0.16 90 1012.3
20260506214547 49 302 4.3 13.0 0.00 0.16 0.16 90 1012.1
20260506213055 49 281 4.3 7.8 0.00 0.16 0.16 90 1011.9
20260506211550 49 315 6.1 11.3 0.00 0.16 0.16 92 1011.7
20260506210100 49 321 6.1 9.6 0.00 0.16 0.16 93 1011.5
20260506204550 49 317 4.3 8.7 0.00 0.16 0.16 93 1011.2
20260506203130 49 286 5.2 13.0 0.00 0.16 0.16 93 1011.0
20260506201549 49 304 6.1 11.3 0.00 0.16 0.16 94 1011.0
20260506200050 49 331 6.1 11.3 0.00 0.16 0.16 94 1010.9
20260506194550 49 296 7.0 13.0 0.00 0.16 0.16 94 1011.0
20260506193048 49 277 5.2 12.2 0.00 0.16 0.16 94 1010.8
20260506191551 49 248 6.1 12.2 0.00 0.16 0.16 93 1011.0
20260506190057 49 339 7.8 14.8 0.00 0.16 0.16 93 1010.8